Wind_Speed
28 28 29 29 30 30 29 27 28 28 30 34 36 37 38 39 41 44 45 46 47 47 48 48 50 51 51 52 54 55 54 54 55 57 58 58 58 58 59 59 59 58 59
24 25 29 31 32 32 32 31 31 33 36 40 43 44 45 48 51 53 53 53 54 54 53 52 53 55 56 55 55 56 59 60 61 64 65 65 61 59 59 61 62 61 61
24 26 32 35 37 38 40 42 42 40 42 46 48 49 53 58 60 59 58 56 53 52 52 54 56 58 58 57 57 60 62 64 64 66 68 67 66 66 61 59 60 62 62
27 29 35 38 39 40 45 48 51 49 50 53 55 57 60 61 58 54 51 49 49 54 60 63 68 70 70 69 67 63 64 65 66 66 68 67 67 69 69 63 60 59 60
30 33 38 42 43 44 47 50 54 56 59 58 59 60 60 59 59 59 56 53 52 55 65 68 74 80 81 80 77 68 66 68 67 67 67 67 65 65 67 68 64 60 59
35 37 40 44 46 48 49 50 55 59 61 62 63 64 65 63 67 70 72 67 60 62 72 72 73 78 79 72 65 65 71 73 72 69 67 65 62 59 60 61 60 63 64
38 38 39 41 44 47 53 57 60 61 64 67 70 74 75 72 75 77 75 73 69 74 77 74 74 76 74 68 68 72 75 77 75 70 67 61 56 54 60 62 62 64 61
39 41 45 48 52 56 60 63 64 70 74 76 75 77 78 78 74 71 71 73 73 74 73 73 77 77 79 76 76 80 83 73 70 66 63 60 56 57 61 62 59 52 48
45 48 55 59 59 60 64 69 73 77 78 75 75 74 71 69 63 63 73 71 69 72 71 73 72 69 64 65 63 65 64 62 61 58 54 53 54 57 56 50 46 42 37
53 57 61 62 65 69 71 71 72 75 78 72 69 73 71 77 79 76 73 66 61 62 61 62 58 55 54 55 56 56 52 50 51 53 54 50 48 45 40 39 38 36 32
59 62 66 69 72 74 73 73 75 77 77 74 72 71 70 69 66 59 52 48 51 53 51 52 51 49 48 49 50 46 42 41 41 43 41 38 37 37 36 33 32 32 32
64 67 69 73 76 77 76 76 73 66 60 56 52 50 48 49 50 53 52 50 52 52 50 49 46 42 39 38 36 34 34 34 31 29 29 30 32 32 32 32 34 32 33
67 69 72 75 74 72 68 64 56 54 53 51 46 45 46 48 53 52 52 55 54 49 45 42 41 37 33 30 28 28 27 25 24 25 25 25 27 30 31 30 30 30 28
69 68 66 64 63 61 58 55 54 53 49 45 43 47 52 57 58 54 54 53 46 40 35 33 31 28 25 25 24 21 20 22 25 26 26 24 23 27 27 27 27 24 22
61 60 59 57 56 54 52 51 52 52 50 52 53 56 62 58 50 48 45 38 33 30 27 24 23 24 21 19 18 20 23 25 25 21 18 17 20 21 20 19 19 18 17
58 59 59 56 53 50 49 50 53 53 54 55 59 62 53 44 40 36 31 26 23 22 20 20 20 17 17 19 22 22 19 15 11 9 11 13 15 13 11 10 11 13 15
58 57 53 50 50 50 50 52 53 54 56 57 53 43 33 30 29 24 20 19 18 17 16 16 16 18 21 23 23 17 10 6 5 6 9 10 8 3 4 3 6 10 11
54 49 46 48 50 51 53 52 50 50 49 43 32 25 25 21 16 15 15 16 15 14 15 18 22 22 20 18 14 9 5 5 5 6 7 6 5 5 4 1 4 6 7
50 44 45 46 47 47 47 44 42 42 38 29 23 19 13 10 11 13 14 13 15 18 20 18 18 13 8 6 4 2 3 4 3 2 3 3 4 6 6 5 8 9 11
43 44 46 46 45 42 41 41 39 32 23 15 9 6 6 8 11 14 16 16 16 14 14 13 12 9 7 5 4 2 3 4 5 7 10 9 7 2 1 3 6 6 6
39 41 41 41 41 41 38 30 18 8 3 3 4 6 7 9 14 17 15 13 13 13 12 11 12 12 10 10 6 3 3 5 7 10 10 9 11 9 8 7 8 8 6
33 36 36 36 33 25 16 6 5 8 7 5 5 8 9 12 14 12 14 16 16 16 15 13 11 12 12 11 9 8 7 6 6 7 4 1 5 8 11 11 10 10 8
30 28 24 16 7 5 7 11 12 11 10 8 7 8 9 10 13 13 14 14 14 15 15 14 12 11 10 9 8 8 8 7 6 4 5 7 8 9 8 10 10 8 6
18 11 6 10 13 16 16 16 15 14 13 13 12 13 15 15 13 13 12 13 13 14 16 16 15 14 13 12 12 12 14 13 11 7 3 1 3 6 8 7 5 4 6
11 17 20 20 21 23 22 21 19 20 22 27 29 27 23 17 15 14 13 15 17 19 20 22 23 23 21 20 20 19 19 19 18 17 13 9 8 9 8 8 7 6 6
25 22 22 26 30 34 37 38 37 36 34 32 28 24 20 18 16 17 18 20 21 23 24 24 24 24 25 25 23 22 20 20 21 21 21 20 18 17 15 13 12 11 10
Wind_Direction
303 302 299 299 296 295 295 293 293 296 300 301 300 298 298 297 294 290 287 285 284 284 285 286 285 284 283 282 281 280 279 280 280 280 280 280 280 281 280 276 272 269 266
301 299 296 295 293 290 287 284 287 294 299 303 304 302 303 303 300 294 289 286 284 283 282 282 281 282 282 283 283 284 285 286 286 285 284 281 278 278 279 278 276 273 269
294 295 291 290 292 292 287 286 288 294 301 305 304 301 302 303 301 295 290 287 284 283 284 284 283 284 283 283 285 288 288 287 285 285 285 285 284 281 278 277 276 275 274
286 288 287 287 287 288 287 284 288 292 297 300 300 297 300 303 301 297 289 286 286 291 297 296 293 289 286 285 283 281 280 281 281 282 283 285 286 285 280 278 278 278 276
276 275 274 277 280 282 286 288 291 297 300 300 297 295 297 299 298 296 290 284 282 289 298 299 297 293 287 282 280 276 277 281 281 281 282 284 283 283 283 280 279 278 277
269 271 272 276 279 284 289 294 298 302 303 302 301 300 302 301 299 297 293 286 278 286 298 296 294 291 282 275 275 276 280 282 282 282 283 285 284 284 286 287 285 282 279
284 283 282 285 288 293 296 298 299 299 300 301 300 298 298 297 296 295 288 282 284 291 296 293 291 286 277 275 282 288 287 285 283 282 284 283 284 285 287 287 288 284 281
282 285 287 289 292 294 295 295 294 296 297 297 296 294 294 293 292 292 288 286 287 288 290 290 291 286 278 280 287 289 288 284 281 282 283 281 279 284 286 287 286 281 278
285 286 289 290 289 287 288 287 288 291 293 294 296 295 292 286 285 288 291 291 287 285 286 290 290 290 287 288 292 289 284 281 280 278 279 281 280 282 284 283 280 277 276
277 280 284 284 284 288 290 291 291 291 293 290 288 287 288 286 294 297 294 294 295 293 292 292 288 288 288 287 284 284 286 281 277 276 277 278 279 279 279 278 277 278 277
287 288 289 289 291 293 293 292 291 291 291 291 292 291 288 288 290 291 288 291 292 292 293 291 290 291 289 287 283 282 284 284 281 275 272 273 272 274 274 274 276 275 277
291 290 290 289 288 289 289 289 291 294 295 298 299 297 295 296 295 298 297 296 295 293 292 292 294 295 293 288 283 283 284 283 281 277 276 275 272 270 272 275 275 273 266
285 285 285 286 287 289 290 292 294 296 296 297 294 294 295 296 298 296 294 294 295 295 292 291 294 295 295 294 293 293 293 291 288 284 281 279 279 278 275 272 269 269 263
286 284 285 288 290 293 296 296 297 297 297 295 292 294 300 299 298 296 296 297 297 294 292 292 294 295 298 302 302 300 296 296 293 287 286 287 287 283 274 266 265 261 256
285 288 291 293 295 297 297 296 298 298 295 295 295 298 302 302 301 300 301 301 299 295 295 295 296 299 303 304 306 306 300 300 300 299 298 296 295 287 271 269 261 255 252
288 292 294 294 295 296 297 296 297 297 295 295 295 301 305 304 302 303 306 308 306 303 297 296 301 303 305 309 314 315 305 299 303 315 325 316 304 281 271 271 248 244 240
288 290 290 290 291 292 294 296 295 294 296 298 302 306 306 305 306 308 311 312 310 308 311 312 307 303 306 313 318 315 297 286 307 333 337 338 342 294 282 249 225 226 209
293 291 291 291 293 295 297 298 298 298 302 306 311 310 309 313 320 324 323 320 317 314 313 309 309 312 312 307 306 302 288 296 332 344 355 16 49 42 18 42 118 138 184
295 294 294 296 297 298 299 300 302 305 308 310 311 311 317 331 336 336 331 325 316 314 318 326 326 324 329 333 332 337 351 319 332 5 8 9 65 57 58 98 137 133 139
292 295 297 298 300 300 301 304 305 307 307 308 319 342 355 352 349 345 340 338 333 329 331 341 354 351 340 349 1 347 303 297 286 275 300 274 257 309 44 139 159 167 146
297 298 299 301 300 300 302 306 313 335 15 59 48 22 14 4 351 345 357 12 18 23 24 28 35 33 28 37 43 49 6 331 322 309 294 268 271 224 211 204 207 209 198
306 306 307 307 306 305 311 336 80 87 83 83 44 31 24 4 6 36 54 51 42 37 27 19 21 29 27 25 32 35 22 10 347 350 21 175 192 177 199 209 210 202 194
314 316 320 327 348 43 78 95 100 92 87 80 58 48 40 45 60 63 58 49 36 25 16 12 8 5 358 352 340 335 336 340 351 8 42 62 107 126 149 167 167 165 172
336 344 44 86 89 90 90 93 98 94 87 80 75 77 83 84 68 59 44 27 13 1 352 345 339 333 324 317 307 297 296 297 296 291 275 225 163 173 184 193 201 198 181
82 99 100 97 93 91 89 88 87 87 94 98 96 90 84 74 58 40 20 3 352 344 339 337 333 330 326 318 307 298 289 282 276 273 269 249 217 217 227 227 212 199 183
111 102 94 96 99 99 96 93 93 94 94 91 86 79 69 55 37 18 4 355 351 345 342 343 337 332 327 323 320 313 303 291 280 269 262 255 247 241 237 230 225 214 203
Height
5839 5837 5836 5835 5833 5832 5831 5830 5826 5823 5821 5819 5817 5814 5811 5808 5804 5799 5796 5792 5789 5786 5783 5779 5776 5773 5772 5769 5766 5764 5763 5761 5758 5756 5756 5756 5755 5751 5748 5746 5745 5743 5742
5834 5832 5830 5829 5827 5825 5822 5820 5818 5816 5813 5811 5809 5806 5803 5798 5794 5789 5785 5781 5778 5775 5772 5769 5766 5762 5758 5755 5751 5749 5748 5748 5744 5741 5738 5739 5743 5738 5734 5729 5726 5725 5725
5829 5828 5825 5822 5819 5817 5814 5811 5809 5807 5805 5802 5798 5795 5792 5787 5783 5778 5772 5768 5765 5760 5757 5754 5752 5749 5746 5744 5741 5736 5732 5730 5729 5723 5717 5715 5716 5716 5719 5715 5711 5708 5706
5822 5820 5818 5815 5813 5810 5805 5802 5799 5797 5794 5790 5785 5781 5777 5773 5768 5763 5758 5754 5749 5744 5740 5737 5735 5733 5730 5728 5725 5720 5716 5712 5711 5707 5700 5696 5692 5690 5693 5697 5694 5691 5688
5814 5812 5811 5807 5805 5802 5797 5794 5792 5787 5783 5780 5774 5769 5764 5759 5754 5750 5745 5741 5737 5730 5724 5719 5716 5713 5709 5706 5703 5699 5695 5691 5689 5686 5683 5680 5675 5670 5667 5670 5674 5673 5671
5803 5801 5800 5799 5797 5794 5790 5786 5782 5776 5772 5767 5760 5754 5749 5744 5739 5734 5729 5725 5720 5715 5708 5702 5696 5693 5689 5684 5681 5678 5675 5670 5668 5665 5663 5661 5659 5655 5651 5650 5652 5651 5650
5795 5793 5792 5790 5786 5783 5780 5775 5771 5765 5759 5754 5748 5741 5735 5730 5724 5717 5710 5707 5702 5697 5690 5683 5679 5673 5669 5664 5661 5658 5656 5651 5648 5646 5644 5643 5643 5638 5635 5632 5633 5630 5628
5787 5784 5781 5780 5777 5773 5769 5763 5757 5751 5744 5738 5732 5726 5720 5713 5706 5699 5692 5687 5682 5676 5671 5665 5660 5654 5649 5645 5639 5635 5633 5631 5630 5629 5628 5627 5627 5623 5620 5615 5614 5611 5610
5776 5774 5771 5768 5765 5761 5757 5751 5747 5739 5730 5722 5715 5708 5701 5694 5687 5681 5676 5671 5664 5659 5653 5646 5640 5636 5631 5625 5620 5618 5616 5613 5612 5611 5611 5611 5610 5608 5604 5601 5598 5597 5597
5768 5766 5761 5756 5751 5746 5740 5735 5730 5722 5713 5706 5699 5693 5688 5679 5672 5667 5663 5654 5647 5640 5632 5628 5624 5620 5613 5608 5607 5605 5601 5598 5597 5596 5596 5596 5595 5593 5590 5589 5588 5586 5585
5756 5749 5742 5736 5732 5728 5723 5717 5712 5704 5696 5688 5681 5675 5670 5666 5661 5655 5648 5640 5634 5628 5621 5616 5611 5605 5598 5595 5594 5591 5587 5585 5583 5582 5582 5582 5581 5581 5579 5578 5577 5577 5576
5739 5734 5729 5722 5715 5711 5705 5699 5692 5685 5678 5672 5666 5660 5655 5651 5646 5639 5632 5625 5621 5615 5610 5605 5599 5593 5588 5586 5583 5580 5577 5575 5573 5571 5571 5571 5570 5569 5569 5568 5568 5566 5567
5725 5722 5715 5708 5701 5693 5686 5680 5676 5671 5665 5659 5654 5649 5644 5639 5633 5626 5620 5614 5608 5603 5598 5593 5588 5583 5580 5577 5573 5570 5568 5566 5564 5562 5562 5561 5560 5559 5558 5557 5557 5557 5557
5707 5703 5698 5692 5685 5677 5671 5665 5661 5656 5651 5646 5641 5637 5632 5626 5619 5612 5606 5600 5594 5590 5586 5582 5578 5575 5571 5569 5566 5563 5561 5559 5557 5555 5554 5553 5552 5549 5547 5548 5548 5548 5550
5691 5687 5683 5677 5671 5665 5660 5654 5649 5643 5638 5633 5628 5622 5618 5612 5603 5598 5593 5587 5583 5579 5576 5573 5571 5567 5565 5563 5561 5559 5556 5553 5551 5549 5547 5545 5543 5539 5539 5538 5539 5541 5544
5681 5674 5666 5662 5658 5653 5648 5643 5638 5631 5625 5620 5615 5611 5605 5599 5592 5588 5583 5579 5576 5573 5570 5567 5565 5564 5562 5560 5556 5553 5549 5547 5546 5545 5543 5540 5537 5536 5534 5534 5535 5537 5540
5670 5664 5657 5652 5647 5642 5637 5632 5626 5620 5614 5609 5604 5599 5594 5590 5586 5582 5579 5576 5573 5570 5567 5565 5563 5560 5557 5554 5551 5547 5545 5544 5544 5543 5541 5538 5535 5532 5531 5532 5533 5535 5536
5659 5653 5648 5642 5637 5632 5626 5620 5614 5608 5603 5599 5595 5592 5589 5587 5584 5581 5577 5574 5571 5568 5566 5564 5560 5557 5553 5549 5547 5545 5544 5545 5545 5543 5541 5539 5535 5532 5531 5532 5533 5534 5535
5647 5643 5637 5632 5627 5621 5614 5608 5603 5599 5595 5592 5591 5590 5588 5587 5585 5581 5577 5573 5570 5567 5564 5562 5558 5554 5551 5548 5546 5546 5546 5546 5545 5544 5542 5540 5538 5536 5535 5535 5535 5535 5536
5638 5633 5628 5621 5615 5608 5603 5600 5595 5591 5590 5589 5589 5589 5589 5588 5585 5582 5578 5574 5570 5566 5563 5561 5557 5554 5552 5549 5547 5545 5544 5544 5543 5542 5541 5539 5538 5539 5540 5539 5538 5538 5539
5629 5623 5617 5610 5604 5599 5595 5591 5589 5588 5589 5590 5591 5592 5591 5589 5586 5582 5578 5574 5571 5567 5564 5561 5559 5557 5553 5551 5548 5546 5544 5542 5540 5538 5536 5536 5535 5537 5539 5539 5539 5539 5539
5619 5614 5608 5601 5594 5590 5588 5588 5589 5590 5591 5593 5594 5594 5593 5590 5587 5584 5581 5578 5575 5571 5567 5564 5562 5559 5556 5553 5550 5548 5545 5542 5540 5536 5533 5532 5532 5533 5535 5537 5537 5538 5539
5612 5607 5601 5596 5592 5590 5590 5591 5592 5594 5594 5595 5596 5595 5594 5592 5590 5588 5586 5583 5579 5574 5570 5567 5564 5561 5558 5554 5551 5549 5546 5543 5540 5538 5536 5534 5532 5533 5535 5535 5536 5538 5539
5608 5604 5601 5599 5597 5596 5596 5597 5598 5598 5598 5599 5598 5598 5597 5597 5596 5594 5591 5587 5583 5579 5574 5569 5565 5562 5557 5554 5551 5547 5544 5542 5539 5537 5537 5536 5534 5534 5535 5536 5536 5537 5538
5608 5607 5606 5605 5604 5604 5605 5605 5605 5605 5604 5604 5604 5604 5604 5604 5602 5599 5595 5591 5586 5580 5574 5568 5562 5557 5553 5549 5545 5542 5540 5537 5535 5534 5534 5534 5534 5533 5534 5534 5535 5536 5537
5613 5612 5611 5610 5610 5610 5611 5612 5615 5616 5616 5615 5613 5613 5612 5610 5606 5602 5597 5592 5586 5579 5572 5566 5559 5553 5547 5542 5537 5534 5532 5530 5528 5528 5528 5528 5529 5530 5531 5532 5533 5535 5536